Regional Weather Roundup
Issued by NWS Sioux Falls, SD

Home | Current Version | Previous Version | Text Only | Print | Product List | Glossary On
Versions: 1 2 3 4 5 6 7 8 9 10 11 12 13 14 15 16 17 18 19 20 21 22 23 24 25 26 27 28 29 30 31 32 33 34 35 36 37 38 39 40 41 42 43 44 45 46 47 48 49 50
000
ASUS43 KFSD 300210
RWRFSD

WEATHER ROUNDUP FOR SE SOUTH DAKOTA/SW MINNESOTA/NW IOWA
NATIONAL WEATHER SERVICE SIOUX FALLS SD
900 PM CDT MON AUG 29 2016

NOTE: "FAIR" INDICATES FEW OR NO CLOUDS BELOW 12,000 FEET WITH NO
SIGNIFICANT WEATHER AND OR OBSTRUCTIONS TO VISIBILITY.


SDZ038>040-050-052>070-300300-
SOUTHEAST SOUTH DAKOTA

CITY           SKY/WX    TMP DP  RH WIND       PRES   REMARKS
BROOKINGS      MOCLDY    76  70  82 S6        30.15
CHAMBERLAIN    CLOUDY    76  68  77 SE6       30.14R
HURON          CLOUDY    80  69  69 N5        30.13R
MADISON        FAIR      73  73 100 S3        30.17S
MITCHELL       MOCLDY    76  65  68 S8        30.14R
SIOUX FALLS    CLOUDY    76  67  73 S5        30.15S
WINNER         FAIR      77  65  66 SE6       30.15R
YANKTON        CLOUDY    73  68  83 E5        30.13R
$$

MNZ071-072-080-081-089-090-097-098-300300-
SOUTHWEST MINNESOTA

CITY           SKY/WX    TMP DP  RH WIND       PRES   REMARKS
FAIRMONT       CLOUDY    71  68  90 S3        30.16F FOG
JACKSON        PTCLDY    73  70  88 S8        30.19R
LUVERNE        PTCLDY    70  68  94 CALM      30.17R
MARSHALL       MOCLDY    75  71  87 SW7       30.14R
MONTEVIDEO     PTCLDY    79  72  78 W7        30.13R
PIPESTONE        N/A     73  70  88 S1        30.18R
REDWOOD FALLS  CLOUDY    78  72  81 SW8       30.12R
TRACY          PTCLDY    76  71  85 SW6       30.16R
WINDOM         CLEAR     73  68  83 S3        30.17R
WORTHINGTON    PTCLDY    74  70  87 S3        30.18S FOG
$$

IAZ001>003-012>014-020>022-031-032-NEZ013-014-SDZ071-300300-
NORTHWEST IOWA

CITY           SKY/WX    TMP DP  RH WIND       PRES   REMARKS
CHEROKEE       CLOUDY    75  71  88 S12       30.17R
DENISON        CLOUDY    68  68 100 SW5       30.15F
ESTHERVILLE    PTCLDY    71  70  96 S5        30.17S
LE MARS        CLOUDY    79  72  78 SE6       30.17R
ORANGE CITY    CLOUDY    75  72  88 SE6       30.17R
SHELDON        PTCLDY    73  72  94 S7        30.15S
SIOUX CITY     TSTM      70  66  87 SW21G28   30.19R
SPENCER        CLOUDY    72  68  87 SE6       30.17F
STORM LAKE     CLOUDY    73  68  83 S8G15     30.18S
$$

ABBREVIATIONS USED IN REMARKS
   TC - TEMPERATURE IN CELSIUS
  WCI - WIND CHILL INDEX
   HX - HEAT INDEX
  VSB - VISIBILITY





USA.gov is the U.S. government's official web portal to all federal, state and local government web resources and services.